Offutt Air Force Base, NE

6:22 AM CDT on September 26, 2016 (GMT -0500)
Offutt Air Force Base

Weather History for KOFF - March, 2013

Change the Weather History Date:

Saturday, March 16, 2013

  Actual Average Record
Temperature  
Mean Temperature 36 °F -  
Max Temperature 40 °F 46 °F 87 °F (2015)
Min Temperature 30 °F 27 °F 17 °F (2008)
Degree Days  
Heating Degree Days 30    
Moisture  
Dew Point 31 °F    
Average Humidity 86    
Maximum Humidity 100    
Minimum Humidity 67    
Precipitation  
Precipitation 0.00 in - - ()
Sea Level Pressure  
Sea Level Pressure 30.04 in    
Wind  
Wind Speed 12 mph (North)    
Max Wind Speed 21 mph    
Max Gust Speed 29 mph    
Visibility 9 miles    
Events      
Averages and records for this station are not official NWS values.
T = Trace of Precipitation, MM = Missing Value Source: NWS Daily Summary

Daily Weather History Graph

Daily Weather History Graph

Search for Another Location

Airport or City:

Trip Planner

Search our weather history database for the weather conditions in past years. The results will help you decide how hot, cold, wet, or windy it might be!

Date:

Astronomy

Mar. 16, 2013 Rise Set
Actual Time 7:33 AM CDT 7:31 PM CDT
Civil Twilight 7:05 AM CDT 7:59 PM CDT
Nautical Twilight 6:33 AM CDT 8:31 PM CDT
Astronomical Twilight 6:01 AM CDT 9:03 PM CDT
Moon 10:00 AM CDT (3/16) No Moon Set
Length of Visible Light 12h 53m
Length of Day
11h 58m
Waxing Crescent, 23% of the Moon is Illuminated
Mar 16
Waxing Crescent
Mar 19
First Quarter
Mar 27
Full
Apr 2
Last Quarter
Apr 10
New

Hourly Weather History & Observations

Time (CDT) Temp. Windchill Dew Point Humidity Pressure Visibility Wind Dir Wind Speed Gust Speed Precip Events Conditions
12:23 AM 39.2 °F 33.0 °F 39.2 °F 100% 29.86 in 7.0 mi NNW 9.2 mph - N/A   Overcast
12:28 AM 41.0 °F 35.8 °F 39.2 °F 93% 29.86 in 7.0 mi North 8.1 mph 17.3 mph N/A   Overcast
12:55 AM 39.9 °F 33.9 °F 39.7 °F 99% 29.87 in 7.0 mi North 9.2 mph - N/A   Overcast
1:40 AM 39.2 °F 32.5 °F 39.2 °F 100% 29.87 in 7.0 mi North 10.4 mph - N/A   Overcast
1:55 AM 40.1 °F 33.2 °F 39.9 °F 99% 29.88 in 7.0 mi North 11.5 mph 21.9 mph N/A   Overcast
2:02 AM 39.2 °F 30.5 °F 39.2 °F 100% 29.88 in 6.0 mi North 16.1 mph 24.2 mph N/A   Overcast
2:29 AM 39.2 °F 30.5 °F 39.2 °F 100% 29.89 in 5.0 mi North 16.1 mph 27.6 mph N/A   Overcast
2:55 AM 38.3 °F 29.0 °F 38.1 °F 99% 29.90 in 6.0 mi North 17.3 mph 25.3 mph N/A   Overcast
3:35 AM 37.4 °F 28.9 °F 37.4 °F 100% 29.93 in 10.0 mi NNW 13.8 mph 23.0 mph N/A   Overcast
3:50 AM 37.4 °F 27.5 °F 35.6 °F 93% 29.94 in 10.0 mi NNW 18.4 mph 27.6 mph N/A   Overcast
3:55 AM 36.7 °F 26.0 °F 36.1 °F 98% 29.94 in 10.0 mi North 20.7 mph - N/A   Overcast
4:21 AM 35.6 °F 25.5 °F 35.6 °F 100% 29.95 in 10.0 mi NNW 17.3 mph - N/A   Overcast
4:48 AM 35.6 °F 26.6 °F 33.8 °F 93% 29.97 in 10.0 mi NNW 13.8 mph 28.8 mph N/A   Overcast
4:55 AM 35.4 °F 26.4 °F 33.8 °F 94% 29.97 in 10.0 mi NNW 13.8 mph 25.3 mph N/A   Overcast
5:55 AM 34.5 °F 25.7 °F 32.2 °F 91% 29.99 in 10.0 mi North 12.7 mph 21.9 mph N/A   Overcast
6:55 AM 33.3 °F 23.7 °F 30.7 °F 90% 30.04 in 10.0 mi North 13.8 mph 26.5 mph N/A   Overcast
7:55 AM 31.8 °F 21.4 °F 29.7 °F 92% 30.07 in 10.0 mi NNW 15.0 mph 20.7 mph N/A   Overcast
8:55 AM 30.7 °F 20.9 °F 27.9 °F 89% 30.09 in 10.0 mi North 12.7 mph - N/A   Overcast
9:55 AM 30.6 °F 18.2 °F 27.1 °F 87% 30.10 in 10.0 mi North 19.6 mph - N/A   Overcast
10:55 AM 31.5 °F 20.9 °F 26.8 °F 83% 30.12 in 10.0 mi North 15.0 mph 19.6 mph N/A   Overcast
11:32 AM 32.0 °F 22.5 °F 26.6 °F 80% 30.12 in 10.0 mi North 12.7 mph 19.6 mph N/A   Overcast
11:55 AM 32.5 °F 23.7 °F 26.4 °F 78% 30.14 in 10.0 mi North 11.5 mph 17.3 mph N/A   Overcast
12:55 PM 33.1 °F 26.1 °F 25.9 °F 75% 30.15 in 10.0 mi NNE 8.1 mph - N/A   Overcast
1:55 PM 33.4 °F 25.4 °F 25.5 °F 73% 30.15 in 10.0 mi North 10.4 mph - N/A   Overcast
2:55 PM 34.0 °F 26.0 °F 25.0 °F 70% 30.13 in 10.0 mi NNE 10.4 mph - N/A   Overcast
3:55 PM 34.3 °F 26.5 °F 25.0 °F 69% 30.12 in 10.0 mi NNE 10.4 mph - N/A   Overcast
4:55 PM 34.0 °F 26.0 °F 23.9 °F 67% 30.13 in 10.0 mi North 10.4 mph - N/A   Overcast
5:55 PM 33.6 °F 25.6 °F 23.9 °F 68% 30.14 in 10.0 mi NNE 10.4 mph - N/A   Overcast
6:55 PM 33.1 °F 24.9 °F 24.1 °F 70% 30.14 in 10.0 mi NNE 10.4 mph - N/A   Overcast
7:55 PM 32.4 °F 25.3 °F 24.4 °F 73% 30.16 in 10.0 mi NNE 8.1 mph - N/A   Overcast
8:55 PM 31.8 °F 26.2 °F 24.3 °F 74% 30.18 in 10.0 mi North 5.8 mph - N/A   Overcast
9:55 PM 31.3 °F 24.7 °F 23.9 °F 74% 30.22 in 10.0 mi NNE 6.9 mph - N/A   Overcast
10:40 PM 30.2 °F 21.3 °F 23.0 °F 75% 30.21 in 10.0 mi NNE 10.4 mph - N/A   Scattered Clouds
10:55 PM 30.7 °F 22.6 °F 23.9 °F 76% 30.21 in 10.0 mi NNE 9.2 mph - N/A   Partly Cloudy
11:55 PM 30.2 °F 20.2 °F 24.1 °F 78% 30.20 in 10.0 mi NE 12.7 mph - N/A   Partly Cloudy